Location: Augustenthal
(51.7167°N, 10.2833°E)
Time: 08:35:16
(UTC+00:00)

ALOS 2 - Pass Details

Date: 20 September 2021
Orbit: 630 x 632 km, 97.9° (Epoch: 23 October)

Event Time Altitude Azimuth Distance (km) Brightness Sun altitude
Exits shadow 21:36:18 16° 17° (NNE) 1,670 5.1 -33.8°
Drops below altitude 10° 21:37:27 10° 7° (N) 2,027 5.8 -33.9°
Sets 21:39:56 0° 355° (N) 2,940 6.9 -34.1°
